Vernal, UT

4:53 PM MST on November 22, 2019 (GMT -0700)
Vernal

Weather History for KVEL - June, 2019

Change the Weather History Date:

Friday, June 14, 2019

  Actual Average Record
Temperature  
Mean Temperature 64 °F 65 °F  
Max Temperature 79 °F 80 °F 96 °F (2018)
Min Temperature 48 °F 50 °F 28 °F (1976)
Degree Days  
Heating Degree Days 2 2  
Month to date heating degree days 39 51  
Since 1 June heating degree days 39 51  
Since 1 July heating degree days 7520 7199  
Cooling Degree Days 0 2  
Month to date cooling degree days 5 23  
Year to date cooling degree days 6 32  
Since 1 June cooling degree days 5 23  
Growing Degree Days 14 (Base 50)    
Moisture  
Dew Point 48 °F    
Average Humidity 60    
Maximum Humidity 89    
Minimum Humidity 32    
Precipitation  
Precipitation 0.01 in 0.03 in 0.29 in (1959)
Month to date precipitation 0.06 0.43  
Year to date precipitation 7.48 3.84  
Sea Level Pressure  
Sea Level Pressure 29.86 in    
Wind  
Wind Speed 4 mph ()    
Max Wind Speed 22 mph    
Max Gust Speed 30 mph    
Visibility 10.0 miles    
Events Rain , Thunderstorm    
T = Trace of Precipitation, MM = Missing Value Source: Averaged Metar Reports

Daily Weather History Graph

Daily Weather History Graph

Search for Another Location

Airport or City:

Astronomy

Jun. 14, 2019 Rise Set
Actual Time 5:47 AM MDT 8:49 PM MDT
Civil Twilight 5:14 AM MDT 9:22 PM MDT
Nautical Twilight 4:31 AM MDT 10:04 PM MDT
Astronomical Twilight 3:42 AM MDT 10:54 PM MDT
Moon 6:14 PM MDT (6/14) 4:07 AM MDT (6/14)
Length of Visible Light 16h 08m
Length of Day
15h 02m
Waxing Gibbous, 92% of the Moon is Illuminated
Jun 14
Waxing Gibbous
Jun 17
Full
Jun 25
Last Quarter
Jul 2
New
Jul 9
First Quarter

Hourly Weather History & Observations

Time (MDT) Temp. Dew Point Humidity Pressure Visibility Wind Dir Wind Speed Gust Speed Precip Events Conditions
12:53 AM 59.0 °F 51.1 °F 75% 29.87 in 10.0 mi NW 3.5 mph - N/A   Clear
1:53 AM 55.9 °F 50.0 °F 80% 29.86 in 10.0 mi Calm Calm - N/A   Clear
2:53 AM 54.0 °F 50.0 °F 86% 29.87 in 10.0 mi WSW 3.5 mph - N/A   Clear
3:53 AM 53.1 °F 48.9 °F 86% 29.86 in 10.0 mi NNW 6.9 mph - N/A   Clear
4:53 AM 50.0 °F 46.0 °F 86% 29.88 in 10.0 mi West 3.5 mph - N/A   Clear
5:53 AM 48.9 °F 45.0 °F 86% 29.87 in 10.0 mi Calm Calm - N/A   Clear
6:53 AM 53.1 °F 46.9 °F 80% 29.87 in 10.0 mi West 5.8 mph - N/A   Clear
7:53 AM 59.0 °F 48.9 °F 69% 29.86 in 10.0 mi Calm Calm - N/A   Clear
8:53 AM 64.0 °F 48.9 °F 58% 29.86 in 10.0 mi Calm Calm - N/A   Clear
9:53 AM 64.9 °F 48.9 °F 56% 29.85 in 10.0 mi Calm Calm - N/A   Clear
10:53 AM 68.0 °F 48.0 °F 49% 29.84 in 10.0 mi SSW 3.5 mph - N/A   Clear
11:53 AM 72.0 °F 48.0 °F 43% 29.81 in 10.0 mi South 8.1 mph - N/A   Clear
12:53 PM 75.9 °F 46.0 °F 35% 29.78 in 10.0 mi NW 5.8 mph - N/A   Clear
1:53 PM 75.9 °F 44.1 °F 32% 29.79 in 10.0 mi North 20.7 mph 27.6 mph N/A   Clear
2:19 PM 70.0 °F 44.1 °F 39% 29.96 in 10.0 mi North 18.4 mph 26.5 mph N/A Thunderstorm Scattered Clouds
2:53 PM 68.0 °F 46.0 °F 45% 29.83 in 10.0 mi North 11.5 mph 23.0 mph 0.00 in   Scattered Clouds
3:42 PM 66.0 °F 46.0 °F 48% 29.99 in 10.0 mi South 9.2 mph - 0.00 in Rain , Thunderstorm Light Rain
3:53 PM 66.0 °F 46.9 °F 50% 29.86 in 10.0 mi South 4.6 mph - 0.01 in Rain Light Rain
4:53 PM 66.0 °F 53.1 °F 63% 29.87 in 10.0 mi Calm Calm - 0.00 in   Overcast
5:53 PM 69.1 °F 48.0 °F 47% 29.84 in 10.0 mi Calm Calm - N/A   Scattered Clouds
6:53 PM 66.9 °F 52.0 °F 59% 29.84 in 10.0 mi South 9.2 mph - N/A   Mostly Cloudy
7:53 PM 66.0 °F 48.9 °F 54% 29.84 in 10.0 mi Calm Calm - N/A   Clear